Location: ??
(34.7707°N, 135.6540°E)
Time: 09:03:52
(UTC+00:00)

Daily predictions for brighter satellites

Satellite Brightness Start Highest point End
(mag) Time Altitude Azimuth Time Altitude Azimuth Time Altitude Azimuth
Terra 4.4 12:15:30 12° NNE 12:15:30 12° NNE 12:15:56 10° NNE
CZ-4C R/B 4.5 12:10:14 10° N 12:15:39 21° NE 12:15:54 21° NE
Cosmos 2218 Rocket 4.4 12:17:08 10° NNW 12:23:01 58° W 12:23:01 58° W
COSMOS 2406 4.2 12:25:30 43° NNW 12:25:30 43° NNW 12:29:43 10° N
Resurs 01 Rocket 4.5 12:47:29 13° WNW 12:47:29 13° WNW 12:48:37 10° WNW
USA 234 4.3 12:43:44 10° NNE 12:49:43 40° NW 12:55:43 10° WSW
Cosmos 1980 Rocket 4.5 13:13:31 10° N 13:14:57 18° N 13:14:57 18° N
CZ-4C R/B 4.3 13:57:28 10° NNW 14:01:05 33° NNW 14:01:05 33° NNW
CZ-2D R/B 4.5 16:34:52 10° NNE 16:36:21 19° NNE 16:36:21 19° NNE
SL-16 R/B 4.3 16:48:23 24° N 16:48:23 24° N 16:50:39 10° NNW
Cosmos 2237 Rocket 4.4 16:57:46 10° NNW 16:59:20 19° N 16:59:20 19° N
ATLAS 3B R/B 3.8 17:13:17 34° E 17:13:17 34° E 17:18:31 10° NE
Cosmos 2297 Rocket 3.7 17:19:58 30° N 17:19:58 30° N 17:22:48 10° NNE
USA 267 3.7 17:15:20 10° NE 17:20:41 55° E 17:20:41 55° E
ADEOS II 3.5 17:28:06 10° N 17:30:53 32° N 17:30:53 32° N
ARIANE 5 R/B 3.6 17:35:52 10° NNE 17:39:19 43° NNE 17:39:19 43° NNE
USA 238 DEB 4.5 17:42:25 39° NNW 17:42:25 39° NNW 17:47:53 10° NNE
USA 238 4.4 17:42:31 39° NNW 17:42:31 39° NNW 17:48:01 10° NNE
IDEFIX/ARIANE 42P 3.8 17:39:19 10° NNE 17:44:02 34° E 17:44:25 34° ESE
Cosmos 2227 Rocket 3.5 17:46:14 30° NNW 17:46:14 30° NNW 17:49:29 10° N
Resurs 1-4 Rocket 4.4 17:44:15 10° NNW 17:45:01 13° NNW 17:45:01 13° NNW
H-2A R/B 4.1 18:01:42 19° N 18:01:42 19° N 18:02:57 10° N
CENTAUR R/B 2.7 18:04:05 53° NW 18:04:05 53° NW 18:10:13 10° NNE
Cosmos 494 Rocket 4.5 18:02:41 10° N 18:07:54 59° ENE 18:11:51 17° SSE
COBE Rocket 4.3 18:16:08 34° SE 18:18:02 59° ENE 18:22:39 10° N
CZ-2C R/B 4.0 18:15:02 10° N 18:17:38 39° N 18:17:38 39° N
deb Chang Zheng 4 3.9 18:14:47 10° NNE 18:19:02 62° E 18:19:02 62° E
NOSS 3-3 (A) 4.5 18:11:57 10° NNW 18:19:48 82° WSW 18:28:17 10° SSE
NOSS 3-3 (C) 4.5 18:12:02 10° NNW 18:19:54 83° WSW 18:28:23 10° SSE
MSX 4.3 18:15:59 10° NNE 18:21:40 56° E 18:24:51 26° SSE
Cosmos 1818 4.3 18:19:23 10° NNW 18:24:43 53° ENE 18:30:00 10° SE
SL-16 R/B 2.0 18:19:40 10° NNW 18:25:21 85° WSW 18:31:00 10° SSE
Meteor 1-4 Rocket 3.2 18:29:25 54° NNE 18:29:25 54° NNE 18:32:25 10° NNE
Cosmos 1867 3.4 18:32:58 61° SW 18:33:58 84° WNW 18:39:26 10° NNE
Meteor 1-13 Rocket 4.1 18:33:32 41° S 18:35:41 88° W 18:41:22 10° N
Gbstr 26 Del rocket 3.8 18:34:20 48° SW 18:36:15 85° SE 18:41:47 10° NE
Cosmos 1300 Rocket 3.4 18:32:50 10° N 18:37:10 85° E 18:38:12 52° SSE
Nadezhda 4 Rocket 3.9 18:35:25 37° SSW 18:38:03 76° W 18:44:25 10° N
Cosmos 1269 Rocket 4.1 18:33:30 10° NNW 18:38:50 80° ENE 18:44:07 10° SSE
Cosmos 2279 Rocket 4.3 18:38:29 10° NNW 18:44:16 41° W 18:44:48 40° WSW
ATLAS 5 CENTAUR R/B 3.4 18:39:13 10° NNW 18:45:03 49° NE 18:51:37 10° SE
BREEZE-M DEB (TANK) 2.6 18:40:33 10° NW 18:45:03 90° NNE 18:49:24 10° SE
Geosat 4.4 18:40:29 10° NNE 18:45:28 61° ESE 18:48:23 24° S
Lacrosse 5 4.4 18:44:44 10° SSE 18:47:18 14° ESE 18:49:53 10° E
PSLV R/B 3.6 18:44:24 10° NNE 18:48:48 83° ESE 18:50:40 34° S
Cosmos 1378 Rocket 3.7 18:47:17 26° S 18:49:40 70° E 18:54:01 10° NNE
Cosmos 2263 Rocket 2.2 18:46:48 29° SSW 18:49:47 83° ESE 18:55:29 10° NNE
Okean 2 Rocket 3.3 18:50:23 10° NNW 18:54:43 46° W 18:54:54 46° W
Meteor 1-23 Rocket 4.4 18:49:12 10° S 18:54:51 73° E 19:00:37 10° NNE
Cosmos 2151 Rocket 3.4 18:52:14 10° NNW 18:56:36 69° W 18:59:26 21° S
CZ-2C R/B 2.6 18:54:38 10° NNE 18:59:10 63° ESE 19:03:44 10° S
Cosmos 1356 4.3 18:56:34 10° NNW 18:58:47 34° NW 18:58:47 34° NW
Shenzhou-11 Module 2.3 19:01:58 51° NE 19:01:58 51° NE 19:04:03 10° ENE
ATLAS 3B R/B 3.2 19:00:33 29° W 19:03:09 39° NW 19:09:20 10° NNE
USA 267 4.1 18:58:44 10° NNE 19:04:31 35° NW 19:08:02 21° W
Meteor 1-12 Rocket 4.4 19:01:00 10° NNW 19:06:45 54° W 19:12:22 10° S
IDEFIX/ARIANE 42P 3.7 19:19:16 10° NNW 19:23:24 24° WNW 19:25:14 20° W
SJ-6F 4.4 19:21:45 10° N 19:25:55 82° W 19:30:04 10° SSW
CZ-4B R/B 2.3 19:28:08 19° SW 19:29:52 29° W 19:32:57 10° NW
SeaSat 1 3.6 19:29:06 10° SE 19:33:49 48° ENE 19:38:33 10° NNW
STARLINK-1132 4.4 19:30:40 11° SSW 19:34:01 41° SE 19:37:30 10° ENE
Cosmos 1975 Rocket 3.2 19:31:02 10° S 19:35:21 77° E 19:39:45 10° N
USA 234 4.0 19:29:11 10° ESE 19:35:31 55° NE 19:41:52 10° NW
Okean 1 Rocket 3.1 19:32:18 10° NNW 19:36:36 55° W 19:40:54 10° S
PAYLOAD A 4.5 19:31:55 10° N 19:36:57 43° WNW 19:41:48 10° SW
STARLINK-1177 4.2 19:33:56 10° SSW 19:37:24 45° SE 19:40:56 10° ENE
STARLINK-1167 4.1 19:36:51 10° SSW 19:40:24 49° SE 19:43:59 10° NE
Cosmos 1437 Rocket 3.0 19:37:05 10° SSW 19:41:04 50° W 19:45:02 10° N
CZ-4B R/B 3.5 19:36:50 10° NNE 19:41:15 69° ESE 19:45:43 10° S
Cosmos 1943 3.2 19:36:40 10° NNW 19:42:24 89° ENE 19:48:05 10° SSE
STARLINK-1168 4.0 19:39:48 10° SSW 19:43:13 48° SE 19:46:40 10° ENE
STARLINK-1164 3.9 19:41:44 10° SSW 19:45:12 51° SE 19:48:40 10° NE
ADEOS 4.2 19:42:06 10° N 19:46:52 37° WNW 19:51:37 10° SW
STARLINK-1182 3.8 19:43:42 10° SSW 19:47:10 54° SE 19:50:40 10° NE
FENGYUN 3A 4.3 19:42:44 10° NNE 19:48:03 59° E 19:53:20 10° S
Cosmos 1689 Rocket 2.9 19:45:57 10° SSW 19:48:37 29° W 19:51:17 10° NW
COSMO-SKYMED 1 4.3 19:46:12 10° SE 19:50:11 37° ENE 19:54:12 10° N
STARLINK-1149 3.6 19:47:40 10° SW 19:51:26 68° SE 19:55:12 10° NE
STARLINK-1172 3.7 19:47:55 10° SSW 19:51:26 60° SE 19:54:57 10° NE
STARLINK-1163 3.6 19:47:46 10° SW 19:51:27 67° SE 19:55:07 10° NE
Meteor PRIRODA 4.1 19:48:12 10° NNE 19:51:52 66° ESE 19:55:31 10° S
Meteor 2-13 Rocket 4.5 19:46:03 10° SSW 19:51:59 58° W 19:57:57 10° N
STARLINK-1145 3.6 19:49:57 10° SW 19:53:28 64° SE 19:57:01 10° NE
STARLINK-1161 3.5 19:51:59 10° SW 19:55:32 68° SE 19:59:05 10° NE
ALOS 2.6 19:51:22 10° NNE 19:56:03 72° ESE 20:00:41 10° S
STARLINK-1160 3.4 19:54:03 10° SW 19:57:36 72° SE 20:01:11 10° NE
STARLINK-80 4.2 19:54:33 10° NW 19:58:18 53° NE 20:02:01 10° ESE
Meteor 1-31 Rocket 3.1 19:56:17 10° N 20:00:03 47° WNW 20:03:47 10° SSW
GP-B 4.4 19:56:12 10° NNE 20:00:28 46° E 20:04:43 10° SSE
Cosmos 1025 Rocket 4.3 20:01:14 10° SSE 20:05:26 47° E 20:09:39 10° NNE
STARLINK-1179 3.0 20:03:09 10° SW 20:06:12 59° NW 20:09:16 10° NE
STARLINK-1176 3.0 20:03:36 10° WSW 20:06:40 58° NW 20:09:45 10° NE
STARLINK-43 4.0 20:03:45 10° WNW 20:07:07 34° SW 20:10:28 10° SSE
STARLINK-1173 3.0 20:06:10 10° SW 20:09:14 59° NW 20:12:19 10° NE
STARLINK-1136 3.0 20:06:38 10° WSW 20:09:41 58° NW 20:12:46 10° NE
Cosmos 1844 Rocket 2.9 20:05:26 10° SSW 20:11:03 81° ESE 20:16:44 10° NNE
Cosmos 1417 Rocket 4.5 20:06:58 10° NNW 20:13:02 68° W 20:19:06 10° S
